Location: Dannhausen
(51.8650°N, 10.1026°E)
Time: 02:08:09
(UTC+00:00)

SL-16 R/B - Visible Passes

Search period start: 17 June 2021 00:00
Search period end: 27 June 2021 00:00
Orbit: 843 x 845 km, 71.0° (Epoch: 16 June)

Date Brightness Start Highest point End Pass type
(mag) Time Alt. Az. Time Alt. Az. Time Alt. Az.
17 Jun 5.5 01:21:26 10° N 01:23:03 11° N 01:24:39 10° NNE visible
17 Jun 3.7 21:30:44 10° WSW 21:36:02 39° NW 21:41:22 10° NNE visible
17 Jun 5.1 23:18:42 10° NW 23:21:50 15° NNW 23:24:59 10° NNE visible
18 Jun 5.5 01:07:05 10° N 01:08:39 11° N 01:10:14 10° NNE visible
18 Jun 3.7 21:16:21 10° WSW 21:21:41 40° NW 21:27:03 10° NNE visible
18 Jun 5.1 23:04:16 10° WNW 23:07:27 15° NNW 23:10:39 10° NNE visible
19 Jun 5.6 00:52:44 10° N 00:54:15 11° N 00:55:48 10° NNE visible
19 Jun 3.7 21:01:59 10° WSW 21:07:20 41° NW 21:12:43 10° NNE visible
19 Jun 5.2 22:49:49 10° WNW 22:53:04 15° NNW 22:56:19 10° NNE visible
20 Jun 5.6 00:38:21 10° N 00:39:52 11° N 00:41:23 10° NNE visible
20 Jun 3.7 20:47:36 10° WSW 20:52:59 42° NW 20:58:24 10° NNE visible
20 Jun 5.2 22:35:24 10° WNW 22:38:41 15° NNW 22:42:00 10° NNE visible
21 Jun 5.7 00:23:59 10° NNW 00:25:29 11° N 00:26:58 10° NNE visible
21 Jun 5.2 02:08:01 10° NNW 02:12:04 19° NNE 02:16:06 10° ENE visible
21 Jun 3.7 20:33:14 10° WSW 20:38:38 43° NW 20:44:04 10° NNE visible
21 Jun 5.3 22:20:58 10° WNW 22:24:19 16° NNW 22:27:40 10° NNE visible
22 Jun 5.8 00:09:38 10° NNW 00:11:05 11° N 00:12:33 10° NNE visible
22 Jun 5.3 01:53:42 10° NNW 01:57:41 19° NNE 02:01:40 10° ENE visible
22 Jun 5.3 22:06:31 10° WNW 22:09:56 16° NNW 22:13:21 10° NNE visible
22 Jun 5.8 23:55:15 10° NNW 23:56:42 11° N 23:58:08 10° NNE visible
23 Jun 5.3 01:39:22 10° NNW 01:43:19 19° NNE 01:47:15 10° ENE visible
23 Jun 5.4 21:52:05 10° WNW 21:55:33 16° NNW 21:59:01 10° NNE visible
23 Jun 5.9 23:40:53 10° NNW 23:42:18 11° N 23:43:44 10° NNE visible
24 Jun 5.4 01:25:03 10° NNW 01:28:56 18° NNE 01:32:49 10° ENE visible
24 Jun 5.4 21:37:39 10° WNW 21:41:10 16° NNW 21:44:42 10° NNE visible
24 Jun 5.9 23:26:30 10° NNW 23:27:54 11° N 23:29:19 10° NNE visible
25 Jun 5.3 01:10:43 10° NNW 01:14:34 18° NNE 01:18:24 10° ENE visible
25 Jun 5.5 21:23:13 10° WNW 21:26:48 17° NNW 21:30:23 10° NNE visible
25 Jun 5.9 23:12:08 10° NNW 23:13:31 11° N 23:14:54 10° NNE visible
26 Jun 5.3 00:56:24 10° NNW 01:00:11 18° NNE 01:03:58 10° ENE visible
26 Jun 5.4 21:08:47 10° WNW 21:12:25 17° NNW 21:16:03 10° NNE visible
26 Jun 5.8 22:57:44 10° NNW 22:59:07 11° N 23:00:31 10° NNE visible
